Location: Poughquag
(41.6090°N, 73.6820°W)
Time: 04:32:08
(UTC-04:00)

Hubble Space Telescope - Visible Passes

Search period start: 24 April 2018 00:00
Search period end: 04 May 2018 00:00
Orbit: 537 x 541 km, 28.5° (Epoch: 23 April)

Date Brightness Start Highest point End Pass type
(mag) Time Alt. Az. Time Alt. Az. Time Alt. Az.
27 Apr 3.0 21:10:11 10° SSW 21:11:13 11° S 21:11:13 11° S visible
28 Apr 2.8 20:59:26 10° SSW 21:01:10 12° S 21:01:43 12° SSE visible
29 Apr 2.8 20:48:49 10° SSW 20:50:43 13° S 20:52:07 11° SSE visible
30 Apr 2.9 20:38:18 10° SSW 20:40:16 13° S 20:42:14 10° SSE visible
01 May 2.9 20:27:52 10° SSW 20:29:48 13° S 20:31:45 10° SSE visible
